Location: Days
(41.3591°N, 106.7339°W)
Time: 06:51:36
(UTC+00:00)

EO-88 - Visible Passes

Search period start: 28 June 2022 00:00
Search period end: 08 July 2022 00:00
Orbit: 458 x 464 km, 97.3° (Epoch: 27 June)

Date Brightness Start Highest point End Pass type
(mag) Time Alt. Az. Time Alt. Az. Time Alt. Az.
28 Jun ? 04:45:26 34° S 04:46:45 65° W 04:50:13 10° NNW visible
29 Jun ? 04:13:33 24° SE 04:15:13 44° ENE 04:18:33 10° N visible
29 Jun ? 05:48:08 10° W 05:48:26 10° W 05:48:44 10° W visible
30 Jun ? 03:41:39 11° ESE 03:43:49 18° ENE 03:46:14 10° NNE visible
30 Jun ? 05:15:32 21° SW 05:16:36 25° W 05:19:33 10° NW visible
01 Jul ? 04:43:36 35° S 04:44:54 69° W 04:48:22 10° NNW visible
02 Jul ? 04:11:39 24° SE 04:13:19 41° ENE 04:16:36 10° N visible
02 Jul ? 05:45:38 10° WSW 05:46:30 11° W 05:47:21 10° WNW visible
03 Jul ? 03:39:41 11° ESE 03:41:49 17° ENE 03:44:09 10° NNE visible
03 Jul ? 05:13:33 22° SW 05:14:36 26° W 05:17:35 10° NW visible
04 Jul ? 04:41:33 36° S 04:42:49 74° WSW 04:46:18 10° NNW visible
05 Jul ? 04:09:32 23° SE 04:11:10 38° ENE 04:14:25 10° N visible
05 Jul ? 05:43:24 11° WSW 05:44:19 11° W 05:45:31 10° WNW visible
06 Jul ? 03:37:29 10° ESE 03:39:37 16° ENE 03:41:49 10° NNE visible
06 Jul ? 05:11:21 24° SW 05:12:22 28° W 05:15:24 10° NW visible
07 Jul ? 04:39:17 37° S 04:40:31 80° W 04:43:59 10° NNW visible
